Location: Glums�
(55.3568°N, 11.6856°E)
Time: 01:52:33
(UTC+00:00)

STARLINK-1371 - Pass Details

Date: 07 June 2020
Orbit: 548 x 550 km, 53.0° (Epoch: 06 July)

Event Time Altitude Azimuth Distance (km) Brightness Sun altitude
Rises 22:38:40 0° 240° (WSW) 2,708 6.9 -11.5°
Reaches altitude 10° 22:40:57 10° 234° (SW) 1,815 6.0 -11.6°
Drops below altitude 10° 22:48:51 10° 88° (E) 1,816 6.2 -11.7°
Maximum altitude 00:24:08 64° 182° (S) 608 3.6 -10.4°
Sets 00:30:27 0° 98° (E) 2,704 7.3 -10.1°
